Location: Althorst
(53.6379°N, 10.7715°E)
Time: 14:12:57
(UTC+00:00)

YAOGAN 1 - Pass Details

Date: 10 December 2019
Orbit: 619 x 621 km, 98.0° (Epoch: 19 January)

Event Time Altitude Azimuth Distance (km) Brightness Sun altitude
Rises 15:59:55 0° 115° (ESE) 2,896 5.6 -8.6°
Reaches altitude 10° 16:02:44 10° 96° (E) 1,995 4.7 -9.0°
Maximum altitude 16:05:31 17° 55° (NE) 1,585 4.0 -9.4°
Drops below altitude 10° 16:08:19 10° 15° (NNE) 2,003 4.8 -9.7°
Sets 16:11:08 0° 356° (N) 2,914 5.8 -10.1°
